This is the latest recevied weather packets stored in our database for station/object KE0FIN. If no packets are shown the sender has not sent any weather packets the latest 10 day(s).
| Time | Temp. | Humidity | Pressure | Rain* | Wind** | Luminosity | Snow |
|---|---|---|---|---|---|---|---|
| 1777732272 | 15° C | 39% | 1074.2 hPa | 0 mm | - | 262 W/m² | - |
| 1777731968 | 14.44° C | 40% | 1073.9 hPa | 0 mm | - | 249 W/m² | - |
| 1777731665 | 14.44° C | 41% | 1073.9 hPa | 0 mm | - | 237 W/m² | - |
| 1777731363 | 13.89° C | 41% | 1073.8 hPa | 0 mm | - | 244 W/m² | - |
| 1777731060 | 13.89° C | 41% | 1073.9 hPa | 0 mm | - | 223 W/m² | - |
| 1777730759 | 13.33° C | 44% | 1073.9 hPa | 0 mm | - | 199 W/m² | - |
| 1777730454 | 12.22° C | 45% | 1073.7 hPa | 0 mm | - | 189 W/m² | - |
| 1777730150 | 12.22° C | 47% | 1073.7 hPa | 0 mm | - | 177 W/m² | - |
| 1777729847 | 11.11° C | 49% | 1073.8 hPa | 0 mm | - | 183 W/m² | - |
| 1777729544 | 10.56° C | 52% | 1073.7 hPa | 0 mm | - | 90 W/m² | - |
| 1777729241 | 10.56° C | 53% | 1073.5 hPa | 0 mm | - | 55 W/m² | - |
| 1777728938 | 10° C | 56% | 1073.7 hPa | 0 mm | - | 58 W/m² | - |
| 1777728634 | 9.44° C | 58% | 1073.6 hPa | 0 mm | - | 43 W/m² | - |
| 1777728332 | 8.89° C | 59% | 1073.6 hPa | 0 mm | - | 58 W/m² | - |
| 1777728028 | 8.89° C | 60% | 1073.5 hPa | 0 mm | - | 33 W/m² | - |
| 1777727725 | 8.33° C | 64% | 1073.6 hPa | 0 mm | - | 30 W/m² | - |
| 1777727422 | 7.78° C | 68% | 1073.6 hPa | 0 mm | - | 34 W/m² | - |
| 1777727120 | 7.78° C | 67% | 1073.6 hPa | 0 mm | - | 27 W/m² | - |
| 1777726818 | 7.22° C | 68% | 1073.5 hPa | 0 mm | - | 29 W/m² | - |
| 1777726514 | 6.67° C | 70% | 1073.5 hPa | 0 mm | - | 25 W/m² | - |
| 1777726211 | 6.67° C | 71% | 1073.5 hPa | 0 mm | - | 24 W/m² | - |
| 1777725908 | 6.11° C | 72% | 1073.3 hPa | 0 mm | - | 25 W/m² | - |
| 1777725605 | 6.11° C | 73% | 1073.2 hPa | 0 mm | - | 22 W/m² | - |
| 1777725303 | 6.11° C | 73% | 1073.1 hPa | 0 mm | - | 21 W/m² | - |
| 1777724999 | 5.56° C | 73% | 1073 hPa | 0 mm | - | 19 W/m² | - |
* Rain latest hour (hover to see other rain measurements)
** Current wind speed in m/s (hover to see current wind gust speed)